Regional Weather Roundup
Issued by NWS

Home | Current Version | Previous Version | Graphics & Text | Print | Product List | Glossary On
Versions: 1 2 3 4 5 6 7 8 9 10 11 12 13 14 15 16 17 18 19 20 21 22 23 24 25 26 27 28 29 30 31 32 33 34 35 36 37 38 39 40 41 42 43 44 45 46 47 48 49 50
000
ASUS43 KMKX 230411
RWRWI

WISCONSIN REGIONAL WEATHER ROUNDUP
NATIONAL WEATHER SERVICE MILWAUKEE/SULLIVAN WI
1000 PM CST SAT NOV 22 2014

NOTE: "FAIR" INDICATES FEW OR NO CLOUDS BELOW 12,000 FEET WITH NO
SIGNIFICANT WEATHER AND/OR OBSTRUCTIONS TO VISIBILITY.

WIZ001-002-006>008-014>016-023>028-230500-
NORTHWEST WISCONSIN

CITY           SKY/WX    TMP DP  RH WIND       PRES   REMARKS
SUPERIOR ARPT  CLOUDY    34  32  92 SE3       29.58F
ASHLAND        CLOUDY    35  32  88 CALM      29.64F
HAYWARD        CLOUDY    35  33  92 S9        29.61F WCI  28
SIREN          CLOUDY    35  35  96 SE6       29.58F FOG     WCI  30
CUMBERLAND     FOG       34  32  93 SE9       29.59F VSB 1/2 WCI  26
RICE LAKE      FOG       35  34  97 SE7       29.63S VSB 1/4 WCI  29
CHETEK         FOG       35  35 100 SE5       29.63S VSB 1/2 WCI  31
LADYSMITH      FOG       36  35  97 SE7       29.66S VSB 3/4 WCI  30
EAU CLAIRE     FOG       36  36 100 SE6       29.62F VSB 1/2 WCI  31
MENOMONIE      FOG       36  35  98 E5        29.63S VSB<1/4 WCI  32
NEW RICHMOND   FOG       37  37 100 SE10      29.58F VSB 3/4 WCI  29
OSCEOLA        FOG       37  37 100 SE10      29.59F VSB 1   WCI  29
$$

WIZ003>005-009-010-017-018-230500-
NORTH CENTRAL WISCONSIN

CITY           SKY/WX    TMP DP  RH WIND       PRES   REMARKS
MANITOWISH WTR CLOUDY    33  33 100 S7        29.65F FOG     WCI  27
ARBOR VITAE    CLOUDY    37  36  96 S10G16    29.66F FOG     WCI  29
WOODRUFF       CLOUDY    37  36  96 S10G16    29.66F FOG     WCI  29
RHINELANDER    CLOUDY    34  33  96 S9        29.68F FOG     WCI  27
EAGLE RIVER    CLOUDY    34  34 100 S5        29.67F FOG     WCI  30
LAND O LAKES   CLOUDY    34  34 100 SW6       29.67F FOG     WCI  29
PHILLIPS       CLOUDY    33  33 100 S8        29.64F FOG     WCI  27
TOMAHAWK       CLOUDY    34  33  96 CALM      29.68F FOG
MEDFORD        FOG       34  34  99 SE6       29.66S VSB 1/2 WCI  29
MERRILL        FOG       35  35 100 SE3       29.69F VSB 3/4
$$

WIZ029-030-035-036-043>047-230500-
CENTRAL WISCONSIN

CITY           SKY/WX    TMP DP  RH WIND       PRES   REMARKS
WAUSAU         FOG       35  35 100 CALM      29.68F VSB 1/4
MOSINEE        SNOW      34  34 100 SE7       29.70F VSB 1/4 WCI  28
MARSHFIELD     FOG       37  36  96 S6        29.68F VSB 1/4 WCI  32
STEVENS POINT  CLOUDY    36  36 100 CALM      29.71F FOG
WAUPACA        FOG       40  39  95 SE5       29.74F VSB 1/2
WAUTOMA        CLOUDY    41  41 100 CALM      29.74F FOG
WISC RAPIDS    CLOUDY    39  37  92 SE5       29.72F
CAMP DOUGLAS   CLOUDY    41  41 100 E6        29.69F FOG
$$

WIZ011>013-019>022-031-037>040-048>050-230500-
NORTHEAST WISCONSIN

CITY           SKY/WX    TMP DP  RH WIND       PRES   REMARKS
ANTIGO         FOG       33  33 100 S6        29.71S VSB 1/2 WCI  28
SHAWANO        CLOUDY    39  38  94 CALM      29.75S FOG
OCONTO         CLOUDY    37  37 100 CALM      29.76F
STURGEON BAY   CLOUDY    39  37  93 S3        29.78F
GREEN BAY      FOG       39  38  96 S3        29.76F VSB 1/2
MANITOWOC      CLOUDY    42  41  96 S5        29.78F FOG
APPLETON       FOG       37  37 100 VRB5      29.76F VSB 1/2 WCI  34
CLINTONVILLE   FOG       36  36 100 S3        29.74F VSB 1/4
OSHKOSH        CLOUDY    41  40  96 S5        29.76S FOG
$$

WIZ032>034-041-042-053>061-230500-
SOUTHWEST WISCONSIN

CITY           SKY/WX    TMP DP  RH WIND       PRES   REMARKS
LA CROSSE      CLOUDY    45  42  89 S13       29.65F FOG
SPARTA         CLOUDY    46  45  97 S7        29.68F FOG
VIROQUA        CLOUDY    46  46 100 S12       29.67F VSB 1/4
BOSCOBEL       CLOUDY    52  50  93 S8        29.71F FOG
PRAIRIE DU CHI CLOUDY    52  49  90 SE5       29.69F FOG
PLATTEVILLE    CLOUDY    50  49  97 S13       29.74F
$$

WIZ056-057-062-063-064-067-068-230500-
SOUTH CENTRAL WISCONSIN

CITY           SKY/WX    TMP DP  RH WIND       PRES   REMARKS
REEDSBURG      CLOUDY    47  47  99 S8        29.71F FOG
BARABOO/DELLS  CLOUDY    47  45  94 S10       29.72F FOG
LONE ROCK      CLOUDY    54  48  80 S6        29.73F HAZE
MINERAL POINT  CLOUDY    52  50  93 S12       29.74F FOG
MADISON        CLOUDY    49  46  90 S9        29.76S
MIDDLETON      CLOUDY    51  50  95 S8        29.76S
WATERTOWN      CLOUDY    46  46 100 S3        29.78S FOG
MONROE         CLOUDY    48  46  93 S15       29.76F
JANESVILLE     CLOUDY    50  46  87 S5        29.79R
$$

WIZ051-052-058>065-066-070>072-230500-
SOUTHEAST WISCONSIN

CITY           SKY/WX    TMP DP  RH WIND       PRES   REMARKS
MILWAUKEE      PTCLDY    43  41  93 SW6       29.81S FOG
WAUKESHA       CLOUDY    45  43  93 S6        29.81S FOG
MILWAUKEE/TIMM MOCLDY    46  43  87 SW7       29.81S
RACINE         CLEAR     48  44  86 SW12      29.82F
BURLINGTON     CLOUDY    47  45  93 S14       29.81S
KENOSHA        CLOUDY    49  46  90 SW12      29.81F
FOND DU LAC    CLOUDY    45  42  89 S8        29.76F FOG
SHEBOYGAN      CLOUDY    42  40  92 CALM      29.79R FOG
WEST BEND      CLOUDY    45  43  93 SW6       29.78F FOG
JUNEAU         CLOUDY    45  45  97 S10       29.78S FOG
$$

LSZ147-162-230500-
LAKE SUPERIOR

STATION/POSITION TIME  TEMP    WIND        PRES    WAVE
                       AIR SEA DIR/SP/G            HT/PER
                 (UTC) (F)     (DEG/KT/KT) (MB)    (FT/S)
DEVILS ISLAND    0400   35     170/  9/ 12 1004.1F
PORT WING        0300   36     150/  2/  9 1004.1R
SAXON HARBOR     0300   33        CALM     1004.4
$$

LMZ867-665-643>646-230500-
LAKE MICHIGAN

STATION/POSITION TIME  TEMP    WIND        PRES    WAVE
                       AIR SEA DIR/SP/G            HT/PER
                 (UTC) (F)     (DEG/KT/KT) (MB)    (FT/S)
CHAMBERS ISLAND  0300   38     200/  7/ 13 1008.8
N MID LAKE BUOY  0350   41 42  240/ 16/ 17 1008.9R   4/ 7
NORTHPORT PIER   0300   38     220/  4/  8 1008.5R
SISTER BAY       0313          250/  9/ 11   N/A
KEWAUNEE LAKESHO 0300   38     220/  4/  6 1008.0S
SHEBOYGAN LAKESH 0400   44 37  170/  8/  9 1009.5R
PORT WASHINGTON  0300   40      CALM  /  1 1009.8
ATWATER BUOY     0300   46        CALM     1010.4F
MILWAUKEE LAKESH 0300   44     170/  4/  5   N/A
S MID LAKE BUOY  0350   46 42  190/ 14/ 16 1010.9R   2/ 4
KENOSHA   LAKESH 0400   51     220/  9/ 15 1009.8F
$$

TC  - TEMPERATURE IN CELSIUS
VSB - VISIBILITY IN STATUTE MILES
WCI - WIND CHILL INDEX
HX  - HEAT INDEX




USA.gov is the U.S. government's official web portal to all federal, state and local government web resources and services.